| time (UTC) | temp F | wind direction | speed knots | gust knots | rain 1hr in | rain 24hr in | rain mn in | humidity % | barometer mb |
| 20260901111536 | 70 | 0 | 0.0 | 0.0 | 0.00 | 0.00 | 0.00 | 96 | 1019.4 |
| 20260901110039 | 70 | 0 | 0.0 | 0.0 | 0.00 | 0.00 | 0.00 | 96 | 1019.2 |
| 20260901104531 | 70 | 0 | 0.0 | 0.0 | 0.00 | 0.00 | 0.00 | 96 | 1019.1 |
| 20260901103045 | 70 | 0 | 0.0 | 0.0 | 0.00 | 0.00 | 0.00 | 96 | 1019.1 |
| 20260901101535 | 70 | 0 | 0.0 | 0.0 | 0.00 | 0.00 | 0.00 | 96 | 1018.9 |
| 20260901100036 | 70 | 0 | 0.0 | 0.0 | 0.00 | 0.00 | 0.00 | 96 | 1018.8 |
| 20260901094537 | 70 | 0 | 0.0 | 0.0 | 0.00 | 0.00 | 0.00 | 96 | 1018.7 |
| 20260901093039 | 71 | 0 | 0.0 | 0.0 | 0.00 | 0.00 | 0.00 | 96 | 1018.6 |
| 20260901091535 | 71 | 0 | 0.0 | 0.0 | 0.00 | 0.00 | 0.00 | 96 | 1018.6 |
| 20260901090036 | 71 | 0 | 0.0 | 0.0 | 0.00 | 0.00 | 0.00 | 96 | 1018.7 |
| 20260901084532 | 71 | 0 | 0.0 | 0.0 | 0.00 | 0.00 | 0.00 | 96 | 1018.8 |
| 20260901083037 | 71 | 0 | 0.0 | 0.0 | 0.00 | 0.00 | 0.00 | 95 | 1018.7 |
| 20260901081533 | 71 | 0 | 0.0 | 0.0 | 0.00 | 0.00 | 0.00 | 96 | 1018.7 |
| 20260901080048 | 71 | 0 | 0.0 | 0.0 | 0.00 | 0.00 | 0.00 | 95 | 1018.5 |
| 20260901074533 | 71 | 0 | 0.0 | 0.0 | 0.00 | 0.00 | 0.00 | 95 | 1018.7 |
| 20260901073036 | 72 | 0 | 0.0 | 0.0 | 0.00 | 0.00 | 0.00 | 95 | 1018.6 |
| 20260901071537 | 72 | 0 | 0.0 | 0.0 | 0.00 | 0.00 | 0.00 | 95 | 1018.6 |
| 20260901070043 | 72 | 0 | 0.0 | 0.0 | 0.00 | 0.00 | 0.00 | 95 | 1018.6 |
| 20260901064532 | 72 | 0 | 0.0 | 0.0 | 0.00 | 0.00 | 0.00 | 95 | 1018.8 |
| 20260901063047 | 72 | 0 | 0.0 | 0.0 | 0.00 | 0.00 | 0.00 | 95 | 1018.8 |
| 20260901061536 | 72 | 0 | 0.0 | 0.0 | 0.00 | 0.00 | 0.00 | 94 | 1018.8 |
| 20260901060037 | 73 | 0 | 0.0 | 0.9 | 0.00 | 0.00 | 0.00 | 94 | 1018.9 |
| 20260901054537 | 73 | 0 | 0.0 | 0.0 | 0.00 | 0.00 | 0.00 | 94 | 1018.9 |
| 20260901053036 | 73 | 0 | 0.0 | 0.0 | 0.00 | 0.00 | 0.00 | 94 | 1019.1 |
| 20260901051535 | 73 | 0 | 0.0 | 0.0 | 0.00 | 0.00 | 0.00 | 94 | 1019.1 |
| 20260901050037 | 73 | 0 | 0.0 | 0.0 | 0.00 | 0.00 | 0.00 | 93 | 1019.1 |
| 20260901044537 | 73 | 0 | 0.0 | 0.0 | 0.00 | 0.00 | 0.00 | 93 | 1019.1 |
| 20260901043037 | 74 | 0 | 0.0 | 0.0 | 0.00 | 0.00 | 0.00 | 93 | 1018.8 |
| 20260901041537 | 74 | 0 | 0.0 | 0.0 | 0.00 | 0.00 | 0.00 | 93 | 1019.1 |
| 20260901040040 | 74 | 0 | 0.0 | 0.0 | 0.00 | 0.00 | 0.00 | 92 | 1019.1 |
| 20260901034540 | 74 | 0 | 0.0 | 0.0 | 0.00 | 0.00 | 0.00 | 91 | 1019.1 |
| 20260901033038 | 75 | 0 | 0.0 | 0.0 | 0.00 | 0.00 | 0.00 | 91 | 1019.2 |
| 20260901031537 | 75 | 0 | 0.0 | 0.0 | 0.00 | 0.00 | 0.00 | 90 | 1019.1 |
| 20260901030036 | 76 | 0 | 0.0 | 0.0 | 0.00 | 0.00 | 0.00 | 89 | 1019.0 |
| 20260901024534 | 76 | 0 | 0.0 | 0.0 | 0.00 | 0.00 | 0.00 | 88 | 1018.9 |
| 20260901023036 | 76 | 0 | 0.0 | 0.0 | 0.00 | 0.00 | 0.00 | 88 | 1018.9 |
| 20260901021534 | 77 | 0 | 0.0 | 0.0 | 0.00 | 0.00 | 0.00 | 86 | 1018.9 |
| 20260901020036 | 77 | 0 | 0.0 | 0.0 | 0.00 | 0.00 | 0.00 | 86 | 1018.8 |
| 20260901014537 | 77 | 0 | 0.0 | 0.0 | 0.00 | 0.00 | 0.00 | 85 | 1018.7 |
| 20260901013036 | 78 | 0 | 0.0 | 0.0 | 0.00 | 0.00 | 0.00 | 85 | 1018.5 |
| 20260901011539 | 79 | 0 | 0.0 | 0.0 | 0.00 | 0.00 | 0.00 | 82 | 1018.3 |
| 20260901010040 | 80 | 0 | 0.0 | 0.0 | 0.00 | 0.00 | 0.00 | 82 | 1018.1 |
| 20260901004537 | 80 | 0 | 0.0 | 0.0 | 0.00 | 0.00 | 0.00 | 80 | 1018.0 |
| 20260901003036 | 81 | 0 | 0.0 | 0.0 | 0.00 | 0.00 | 0.00 | 78 | 1017.8 |
| 20260901001534 | 82 | 0 | 0.0 | 0.0 | 0.00 | 0.00 | 0.00 | 75 | 1017.7 |
| 20260901000037 | 84 | 0 | 0.0 | 0.0 | 0.00 | 0.00 | 0.00 | 72 | 1017.5 |
| 20260831234537 | 85 | 0 | 0.0 | 0.0 | 0.00 | 0.00 | 0.00 | 70 | 1017.6 |
| 20260831233040 | 86 | 0 | 0.0 | 0.0 | 0.00 | 0.00 | 0.00 | 66 | 1017.6 |
| 20260831231535 | 88 | 0 | 0.0 | 0.9 | 0.00 | 0.00 | 0.00 | 62 | 1017.6 |
| 20260831230039 | 88 | 0 | 0.0 | 3.5 | 0.00 | 0.00 | 0.00 | 61 | 1017.8 |
| 20260831224535 | 89 | 33 | 0.0 | 2.6 | 0.00 | 0.00 | 0.00 | 59 | 1017.8 |
| 20260831223041 | 90 | 34 | 0.0 | 3.5 | 0.00 | 0.00 | 0.00 | 58 | 1017.8 |
| 20260831221535 | 90 | 33 | 0.9 | 5.2 | 0.00 | 0.00 | 0.00 | 58 | 1017.8 |
| 20260831220036 | 91 | 0 | 0.0 | 3.5 | 0.00 | 0.00 | 0.00 | 57 | 1017.8 |
| 20260831214547 | 91 | 31 | 0.0 | 1.7 | 0.00 | 0.00 | 0.00 | 58 | 1017.9 |
| 20260831213036 | 91 | 268 | 0.9 | 2.6 | 0.00 | 0.00 | 0.00 | 57 | 1018.0 |
| 20260831211535 | 91 | 24 | 0.0 | 2.6 | 0.00 | 0.00 | 0.00 | 53 | 1018.2 |
| 20260831210038 | 91 | 13 | 0.9 | 3.5 | 0.00 | 0.00 | 0.00 | 57 | 1018.2 |
| 20260831204534 | 92 | 0 | 0.0 | 3.5 | 0.00 | 0.00 | 0.00 | 56 | 1018.2 |
| 20260831203034 | 91 | 27 | 0.9 | 3.5 | 0.00 | 0.00 | 0.00 | 57 | 1018.3 |
| 20260831201537 | 91 | 0 | 0.0 | 2.6 | 0.00 | 0.00 | 0.00 | 57 | 1018.5 |
| 20260831200033 | 90 | 0 | 0.0 | 2.6 | 0.00 | 0.00 | 0.00 | 59 | 1018.6 |
| 20260831194536 | 91 | 63 | 1.7 | 3.5 | 0.00 | 0.00 | 0.00 | 57 | 1018.8 |
| 20260831193104 | 90 | 0 | 0.0 | 3.5 | 0.00 | 0.00 | 0.00 | 58 | 1018.8 |
| 20260831191532 | 91 | 44 | 0.9 | 2.6 | 0.00 | 0.00 | 0.00 | 56 | 1019.1 |
| 20260831190040 | 90 | 0 | 0.0 | 3.5 | 0.00 | 0.00 | 0.00 | 61 | 1019.5 |
| 20260831184535 | 90 | 17 | 0.0 | 3.5 | 0.00 | 0.00 | 0.00 | 58 | 1019.6 |
| 20260831183036 | 88 | 0 | 0.0 | 2.6 | 0.00 | 0.00 | 0.00 | 60 | 1019.8 |
| 20260831181546 | 88 | 26 | 0.9 | 2.6 | 0.00 | 0.00 | 0.00 | 62 | 1020.0 |
| 20260831180037 | 88 | 114 | 0.0 | 4.3 | 0.00 | 0.00 | 0.00 | 67 | 1020.1 |
| 20260831174536 | 88 | 60 | 0.9 | 4.3 | 0.00 | 0.00 | 0.00 | 64 | 1020.2 |
| 20260831173035 | 87 | 36 | 0.9 | 5.2 | 0.00 | 0.00 | 0.00 | 65 | 1020.5 |
| 20260831171535 | 86 | 0 | 0.9 | 3.5 | 0.00 | 0.00 | 0.00 | 68 | 1020.6 |
| 20260831170039 | 85 | 32 | 0.9 | 4.3 | 0.00 | 0.00 | 0.00 | 71 | 1020.8 |
| 20260831164545 | 85 | 19 | 0.0 | 4.3 | 0.00 | 0.00 | 0.00 | 71 | 1020.9 |
| 20260831163034 | 85 | 0 | 0.0 | 3.5 | 0.00 | 0.00 | 0.00 | 71 | 1021.0 |
| 20260831161554 | 84 | 0 | 0.0 | 3.5 | 0.00 | 0.00 | 0.00 | 74 | 1021.2 |
| 20260831160045 | 83 | 0 | 0.0 | 0.9 | 0.00 | 0.00 | 0.00 | 78 | 1021.2 |
| 20260831154610 | 83 | 38 | 0.9 | 2.6 | 0.00 | 0.00 | 0.00 | 77 | 1021.4 |
| 20260831153034 | 82 | 0 | 0.9 | 5.2 | 0.00 | 0.00 | 0.00 | 78 | 1021.4 |
| 20260831151533 | 81 | 0 | 0.0 | 1.7 | 0.00 | 0.00 | 0.00 | 81 | 1021.4 |
| 20260831150040 | 80 | 0 | 0.9 | 3.5 | 0.00 | 0.00 | 0.00 | 82 | 1021.1 |
| 20260831144535 | 79 | 36 | 0.9 | 2.6 | 0.00 | 0.00 | 0.00 | 85 | 1021.0 |
| 20260831143037 | 78 | 0 | 0.0 | 1.7 | 0.00 | 0.00 | 0.00 | 88 | 1020.9 |
| 20260831141535 | 77 | 0 | 0.0 | 2.6 | 0.00 | 0.00 | 0.00 | 91 | 1021.0 |
| 20260831140034 | 76 | 0 | 0.0 | 1.7 | 0.00 | 0.00 | 0.00 | 93 | 1021.1 |
| 20260831134538 | 75 | 0 | 0.0 | 0.0 | 0.00 | 0.00 | 0.00 | 95 | 1021.2 |
| 20260831133037 | 74 | 0 | 0.0 | 0.0 | 0.00 | 0.00 | 0.00 | 97 | 1021.3 |
| 20260831131553 | 73 | 0 | 0.0 | 0.0 | 0.00 | 0.00 | 0.00 | 97 | 1021.3 |
| 20260831130043 | 72 | 0 | 0.0 | 0.0 | 0.00 | 0.00 | 0.00 | 98 | 1021.3 |
| 20260831124540 | 72 | 0 | 0.0 | 0.0 | 0.00 | 0.00 | 0.00 | 97 | 1021.1 |
| 20260831123042 | 71 | 0 | 0.0 | 0.0 | 0.00 | 0.00 | 0.00 | 97 | 1021.2 |
| 20260831121535 | 70 | 0 | 0.0 | 0.0 | 0.00 | 0.00 | 0.00 | 98 | 1021.1 |
| 20260831120037 | 70 | 0 | 0.0 | 0.0 | 0.00 | 0.00 | 0.00 | 97 | 1021.0 |
| 20260831114535 | 70 | 0 | 0.0 | 0.0 | 0.00 | 0.00 | 0.00 | 97 | 1020.9 |
| 20260831113042 | 70 | 0 | 0.0 | 0.0 | 0.00 | 0.00 | 0.00 | 97 | 1020.6 |